Powrót do katalogu

THORAD DELTA 1 DEB

AktywnyLEO
NORAD 18693·DEBRIS·🇺🇸 United States

Wystrzelony Nov 15, 1974 z Vandenberg Space Force Base

Loading…

Następne Przeloty (najbliższe 24 godziny)

TLE

ŚwieżeSource: Space-Track

Epoka: Sep 14, 2026, 20:13 UTC

1 18693U 74089FA  26257.84272765 -.00001033  00000-0 -30663-2 0  9997
2 18693 101.6382 215.8470 0195623 283.8229 102.4004 12.98108844792865

Śledź THORAD DELTA 1 DEB w czasie rzeczywistym z AllMySat

Download on the App Store